Date_(UTC),Time_(UTC),Sample_ID,Latitude_(Decimal_Degrees),Longitude_(Decimal_Degrees),Temperature_(Celcius),Salinity_(PSU),pH_(total)_at_25C
8/5/2010,13:50,2,68.4160161,-167.6577411,7.6,32.059,7.711650103
8/5/2010,15:59,3,68.75583928,-167.2458792,6.8,31.427,7.998862778
8/5/2010,17:35,4,69.0065066,-166.9327828,6.8,31.819,7.916169803
8/5/2010,19:15,5,69.32350685,-166.487671,6.8,31.827,7.920119422
8/5/2010,21:26,6,69.75767437,-165.42998,7.3,31.599,7.910502327
8/5/2010,23:28,7,70.1455123,-164.3614281,7.2,31.504,7.917882686
8/6/2010,1:21,8,70.4298465,-163.3579913,6.7,31.491,7.921458881
8/6/2010,5:26,10,70.98683698,-161.009326,5.7,30.385,8.001077144
8/6/2010,7:29,11,71.1226728,-159.8517684,4.4,29.504,7.976476703
8/6/2010,13:44,14,71.84617963,-156.8817818,-0.1,27.25,7.798017618
8/6/2010,16:16,15,71.9286787,-155.945312,-0.1,26.558,7.780054875
8/6/2010,18:06,16,71.96534873,-155.3190691,0.6,26.311,7.748548449
8/6/2010,20:09,17,71.96933605,-154.3771438,1,26.981,7.785015049
8/6/2010,22:17,18,71.9688356,-153.5679012,0.9,26.839,7.800842289
8/7/2010,0:00,19,71.89417763,-152.7284785,1.5,27.926,7.792690146
8/7/2010,2:23,20,71.78700382,-151.616016,0.5,23.135,7.743592603
8/7/2010,4:37,21,71.68268272,-150.6272272,1.7,19.813,7.722181887
8/7/2010,6:14,22,71.59551222,-149.8808642,1.1,19.671,7.731039665
8/7/2010,8:00,23,71.48483487,-148.9688856,1.6,19.871,7.731405052
8/7/2010,10:00,24,71.37150495,-148.4245412,0.1,16.891,7.767091701
8/7/2010,11:05,25,71.34701372,-148.0597931,0.4,16.832,7.791456379
8/7/2010,13:05,26,71.29901568,-147.3095429,0.5,20.877,7.727640084
8/7/2010,15:13,27,71.18466803,-146.2600601,2.7,21.285,7.728727386
8/7/2010,17:15,28,71.10633967,-145.4767601,2.5,19.36,7.725392241
8/7/2010,19:05,29,71.03184865,-144.675025,2.6,21.01,7.73601397
8/7/2010,21:08,30,70.86766767,-143.294361,2.7,20.617,7.742470651
8/7/2010,23:07,031A,70.68251583,-141.9085586,7.1,24.56,7.756443184
8/7/2010,23:07,031B,70.68251583,-141.9085586,7.1,24.56,7.757510456
8/8/2010,1:05,32,70.4125126,-140.6448448,7.2,24.091,7.739970807
8/8/2010,3:19,33,70.51568233,-140.145679,7.7,24.153,7.749180211
8/8/2010,5:16,34,70.87751083,-139.9015015,8.3,23.595,7.76394791
8/8/2010,7:08,35,71.21518185,-139.6000167,2.1,26.716,7.726687553
8/8/2010,9:03,36,71.38350022,-139.4216049,1.2,24.649,7.716008203
8/8/2010,11:00,37,71.44651328,-139.4963297,-0.1,23.55,7.703302837
8/8/2010,12:50,38,71.56351363,-139.2715048,-0.1,25.29,7.697995924
8/8/2010,14:50,39,71.74300975,-139.1149667,-0.5,25.005,7.703342296
8/8/2010,16:50,40,71.89718052,-138.8552386,-1,24.874,7.705654971
8/8/2010,19:03,41,72.04834833,-138.6058225,-1.1,26.115,7.705207635
8/8/2010,21:02,42,72.24217555,-138.4489656,-1.1,25.617,7.678953113
8/8/2010,23:01,043A,72.41983653,-138.2201702,-1.1,25.576,7.675743605
8/8/2010,23:01,043B,72.41983653,-138.2201702,-1.1,25.576,7.675909909
8/8/2010,23:01,043C,72.41983653,-138.2201702,-1.1,25.576,7.674361481
8/9/2010,1:04,44,72.60333682,-138.0760427,-1.3,25.78,7.679272614
8/9/2010,3:00,45,72.74217553,-137.827344,-1.3,25.342,7.679648453
8/9/2010,5:00,46,72.9288455,-137.6093427,-1.3,26.42,7.688421826
8/9/2010,7:00,47,73.06217898,-138.2083417,-1.1,25.534,7.669251732
8/9/2010,9:00,48,73.17584262,-138.8855856,-1,24.714,7.661066367
8/9/2010,11:05,49,73.1310144,-139.3895729,-1,24.57,7.66160056
8/9/2010,13:00,50,72.92650992,-139.4707207,-1.1,25.043,7.670438266
8/9/2010,15:00,51,72.71017692,-139.5744411,-1.1,25.088,7.666486161
8/9/2010,17:00,52,72.52751092,-139.6655656,-1.2,25.59,7.680921486
8/10/2010,0:25,53,72.30667345,-139.7531698,-1.2,25.994,7.678818345
8/10/2010,2:20,54,72.11418083,-139.8553887,-0.7,25.127,7.686099693
8/10/2010,4:20,55,71.96418085,-139.9440774,-0.8,25.226,7.695264683
8/10/2010,6:20,56,71.86900245,-139.9740741,-0.9,25.081,7.697694581
8/10/2010,8:20,57,71.70633967,-140.0183684,-0.4,24.782,7.710313324
8/10/2010,11:27,58,71.50100105,-140.1620621,-0.6,24.554,7.691287296
8/10/2010,13:10,59,71.39167507,-140.1829663,-0.6,24.943,7.703615698
8/10/2010,15:10,60,71.1805139,-140.2729563,0.9,25.846,7.722086936
8/10/2010,17:05,61,70.91117793,-140.3895896,8,23.762,7.769443706
8/10/2010,19:05,62,70.52017017,-140.5373373,7.9,24.555,7.758875808
8/10/2010,21:03,63,70.6546714,-139.6084918,8,24.001,7.771813508
8/10/2010,23:02,64,70.66251265,-139.6958625,8,23.685,7.772757176
8/11/2010,5:09,065A,70.87884562,-140.486353,8.2,23.82,7.776433338
8/11/2010,5:09,065B,70.87884562,-140.486353,8.2,23.82,7.777064555
8/11/2010,7:03,66,70.95750765,-141.7639306,7.6,24.19,7.760345999
8/11/2010,9:00,67,71.06916918,-142.7927761,7.2,24.534,7.761208396
8/11/2010,11:00,68,71.22834502,-143.8743243,6.8,24.508,7.759493207
8/11/2010,13:00,69,71.34718062,-145.0514681,5.1,23.316,7.741816256
8/11/2010,14:56,70,71.3430098,-145.5016683,3.6,23.163,7.733081207
8/11/2010,17:00,71,71.39701378,-144.8266767,4.88,23.392,7.740830101
8/11/2010,17:56,72,71.35100105,-144.3795629,6.7,25.072,7.749116039
8/11/2010,19:55,73,71.3181682,-144.0056723,6.6,24.468,7.754917644
8/12/2010,22:30,74,70.9142227,-143.1607207,7.8,24.196,7.77683915
8/13/2010,2:13,75,71.18218223,-144.7585752,6,24.246,7.749169986
8/13/2010,4:15,76,71.19000667,-145.8155822,4.1,23.991,7.732065038
8/13/2010,6:36,77,71.31783458,-146.8267267,2.7,25.115,7.730428536
8/13/2010,8:27,78,71.62500843,-146.6393393,3.5,23.404,7.710260988
8/13/2010,10:42,79,71.96418085,-146.1793794,5.8,25.331,7.733903515
8/13/2010,13:00,80,72.22550895,-145.3641141,1.1,26.086,7.694667377
8/13/2010,15:07,81,72.33683693,-145.4067067,1,25.97,7.689398653
8/13/2010,16:58,82,72.46151152,-145.3988822,0.5,25.932,7.683550292
8/13/2010,18:25,83,72.55767443,-145.3910744,0.4,25.756,7.677329046
8/13/2010,20:25,084A,72.69784798,-145.3826493,0.4,25.66,7.675205576
8/13/2010,20:25,084B,72.69784798,-145.3826493,0.4,25.66,7.675553218
8/13/2010,22:22,85,72.82317322,-145.3748248,0,25.485,7.679227644
8/14/2010,3:46,86,73.00667333,-145.3627127,-0.5,25.343,7.676603367
8/14/2010,5:51,087A,73.14384392,-145.3514014,-0.9,25.056,7.66501531
8/14/2010,8:51,88,73.3382278,-145.3408693,-0.9,25.127,7.664695241
8/14/2010,11:15,89,73.42334002,-145.3363864,-0.8,25.115,7.665611275
8/14/2010,13:23,90,73.46184517,-145.3300133,-0.8,25.09,7.665914625
8/14/2010,15:18,91,73.50250252,-145.3288455,-0.8,24.997,7.663134551
8/14/2010,17:15,92,73.6370037,-145.3240574,-1,24.783,7.661764161
8/14/2010,19:31,93,73.79434445,-145.308692,-1,24.682,7.660137757
8/14/2010,21:40,94,73.92283952,-145.319019,-1.1,24.618,7.660964526
8/14/2010,23:12,95,73.8431765,-145.5432766,-1.1,24.634,7.660776785
8/15/2010,1:11,96,73.74768112,-145.8569903,-0.8,24.762,7.659307301
8/15/2010,3:03,97,73.65617295,-146.1577077,-0.8,24.746,7.658178959
8/15/2010,5:18,098A,73.5528362,-146.4994328,-0.9,24.965,7.666879582
8/15/2010,5:18,098B,73.5528362,-146.4994328,-0.9,24.965,7.664367134
8/15/2010,7:21,99,73.45350363,-146.8158825,-0.4,25.15,7.67031508
8/15/2010,10:00,100,73.3256757,-147.2254922,-0.4,25.464,7.669380037
8/15/2010,13:10,101,73.17917922,-147.7004671,-0.7,25.399,7.667394305
8/15/2010,15:01,102,73.09234233,-147.9791124,-0.2,25.464,7.678621052
8/15/2010,17:05,103,72.97984657,-148.3383383,0.1,25.485,7.680458781
8/15/2010,19:00,104,72.8040041,-148.8852352,2.5,26.165,7.695565241
8/15/2010,21:10,105A,72.51201205,-149.7900067,5.1,26.405,7.718209656
8/15/2010,21:10,105B,72.51201205,-149.7900067,5.1,26.405,7.719169683
8/15/2010,23:22,106,72.1936771,-150.7591758,3.4,23.87,7.696071474
8/16/2010,1:34,107,71.91833513,-151.5843343,1.4,21.925,7.695836725
8/16/2010,17:20,108,71.43383383,-156.9752586,5.8,31.01,7.879680108
8/16/2010,19:18,109,71.37033702,-156.7973974,4.7,31.363,7.845668349
8/17/2010,13:11,110,72.47550887,-152.4036203,3.1,23.055,7.691214442
8/17/2010,15:05,111,72.67283957,-151.3645145,2.8,22.904,7.69277451
8/17/2010,17:05,112,73.05834167,-151.1184333,-0.9,24.635,7.702627178
8/17/2010,19:05,113,73.46267933,-150.8492159,-0.9,24.737,7.654706047
8/17/2010,21:04,114A,73.59584583,-150.7624291,-0.6,25.09,7.661384663
8/17/2010,21:04,114B,73.59584583,-150.7624291,-0.6,25.09,7.662654366
8/17/2010,23:06,115,73.73783797,-150.6722389,-0.6,25.34,7.665689931
8/18/2010,1:03,116,73.87584253,-150.5845846,-0.6,25.024,7.659870341
8/18/2010,3:00,117,74.015689,-150.4950912,-0.2,25.196,7.662984257
8/18/2010,5:04,118,74.15517198,-150.4035202,-0.7,25.015,7.66065476
8/18/2010,7:00,119,74.27417425,-150.3183851,-0.6,24.787,7.657127972
8/18/2010,9:00,120,74.40367037,-150.2363197,-0.9,24.74,7.658252028
8/18/2010,11:00,121,74.5221722,-150.1498332,-1,24.604,7.665223507
8/18/2010,13:00,122,74.6530031,-150.0717718,-0.9,24.562,7.656565626
8/18/2010,14:57,123,74.76551555,-150.2507341,-0.9,24.579,7.651771762
8/18/2010,17:00,124,74.86518192,-150.7131298,-0.9,24.64,7.652019834
8/18/2010,19:00,125,74.94668008,-151.0833,-0.8,24.715,7.653714326
8/18/2010,21:00,126,75.05367047,-151.3372706,-0.8,24.816,7.653679547
8/18/2010,23:00,127,75.17167173,-151.626293,-0.8,24.721,7.651954921
8/19/2010,1:00,128,75.20433782,-152.1518685,-0.9,24.77,7.654524646
8/19/2010,3:00,129,75.29034033,-152.6000334,-0.8,24.811,7.652678063
8/19/2010,5:00,130,75.36434773,-153.0258258,-1,24.846,7.654817053
8/19/2010,7:00,131A,75.45100102,-153.4309977,-1,24.888,7.659355773
8/19/2010,7:00,131B,75.45100102,-153.4309977,-1,24.888,7.658249929
8/19/2010,9:00,132,75.53633645,-153.8404905,-1,24.953,7.658276622
8/19/2010,11:16,133,75.61866867,-154.2504838,-1,24.6,7.657118529
8/19/2010,13:00,134,75.694678,-154.6070571,-0.9,24.903,7.654780099
8/19/2010,15:00,135,75.74267603,-155.0897064,-1.1,25.026,7.658668201
8/19/2010,17:00,136A,75.77634312,-155.5650317,-1.1,25.266,7.661774229
8/19/2010,17:00,136B,75.77634312,-155.5650317,-1.1,25.266,7.663329593
8/19/2010,19:00,137,75.81518198,-155.1008342,-1.1,25.468,7.666132722
8/19/2010,20:59,138,75.8425092,-156.4592926,-1,25.467,7.667343273
8/19/2010,23:00,139,76.03001343,-156.3254087,-1,25.156,7.661343317
8/20/2010,7:00,140,76.21683363,-154.7869369,-0.8,24.773,7.651753503
8/20/2010,9:00,141,76.24250925,-154.2249082,-0.7,24.798,7.652625422
8/20/2010,11:00,142,76.30250265,-153.884985,-0.8,24.825,7.65391099
8/20/2010,13:00,143,76.27150487,-153.5800133,-0.9,24.874,7.655355861
8/20/2010,15:00,144,76.29651318,-153.0302302,-0.7,24.033,7.655548392
8/20/2010,17:00,145,76.32334002,-152.4455956,-0.9,25.189,7.657390064
8/20/2010,19:00,146,76.34017352,-151.8774274,-0.9,25.257,7.665428852
8/20/2010,21:00,147,76.37167167,-151.3405739,-0.9,25.125,7.663203243
8/20/2010,23:00,148,76.40900905,-150.6166667,-0.7,25.509,7.673737281
8/21/2010,1:00,149,76.42417423,-150.1861695,-0.7,25.683,7.676705085
8/21/2010,3:00,150,76.44801477,-149.6480314,-1,26.155,7.675555905
8/21/2010,3:00,150,76.44801477,-149.6480314,-1,26.155,7.687541312
8/21/2010,4:11,151,76.46351365,-149.2995329,-1.1,25.69,7.684582036
8/22/2010,0:06,152,77.095679,-148.656373,-1.2,26.009,7.691029524
8/22/2010,2:00,153,77.28633638,-148.4828328,-1.2,26.273,7.698812884
8/22/2010,4:00,154,77.48483492,-150.360377,-1.3,26.377,7.703252487
8/22/2010,6:00,155,77.67517518,-151.2144144,-1.3,26.652,7.711649659
8/22/2010,8:00,156,77.8575075,-152.043994,-1.3,26.93,7.71381637
8/22/2010,10:00,157,78.04234237,-152.9007341,-1.3,26.995,7.714274086
8/22/2010,14:00,158,78.16966968,-152.5550717,-1.3,27.119,7.714101911
8/22/2010,16:11,159,78.24134142,-151.9215048,-1.3,27.254,7.714229599
8/22/2010,18:15,160,78.30950965,-151.3360861,-1.3,27.279,7.712318699
8/22/2010,21:14,161,78.374341,-150.699049,-1.3,27.349,7.713607319
8/22/2010,23:00,162,78.39017365,-150.7945445,-1.3,27.42,7.71259008
8/23/2010,1:00,163,78.39184197,-150.615649,-1.3,27.38,7.712936751
8/23/2010,3:00,164,78.4665166,-150.9377044,-1.3,27.478,7.71620617
8/23/2010,5:00,165,78.52951292,-149.3706206,-1.3,27.641,7.71768447
8/23/2010,7:00,166A,78.6033368,-148.705322,-1.3,27.633,7.719335598
8/23/2010,7:00,166B,78.6033368,-148.705322,-1.3,27.633,7.718757901
8/23/2010,9:00,167,78.67100445,-148.0941441,-1.3,27.602,7.72214688
8/23/2010,11:30,168,78.76051052,-147.2798966,-1.4,27.873,7.718182855
8/23/2010,13:10,169,78.81084427,-146.8113614,-1.4,27.916,7.720287288
8/23/2010,14:58,170A,78.8730064,-146.2430597,-1.3,27.866,7.728948404
8/23/2010,14:58,170B,78.8730064,-146.2430597,-1.3,27.866,7.728907089
8/23/2010,17:47,171,78.97117123,-145.3233901,-1.4,28.03,7.728066572
8/23/2010,19:30,172,79.00850857,-144.9839339,-1.4,28.2,7.732921957
8/23/2010,21:30,173,79.12267278,-143.7730898,-1.4,28.318,7.73383512
8/23/2010,23:30,174A,79.31816827,-142.7544711,-1.3,28.409,7.738764859
8/23/2010,23:30,174B,79.31816827,-142.7544711,-1.3,28.409,7.739544651
8/24/2010,1:52,175,79.58533547,-141.8144645,-1.3,27.892,7.720068219
8/24/2010,4:00,176,79.81568235,-141.0289122,-1.3,27.651,7.709487845
8/24/2010,6:00,177,79.86017683,-140.7509009,-1.3,27.306,7.706078114
8/24/2010,8:00,178,80.01418085,-140.2718552,-1.2,27.068,7.705061217
8/24/2010,10:00,179,80.21401405,-139.5446446,-1,27.343,7.692183737
8/24/2010,12:00,180,80.35533873,-139.0103103,-1.3,27.3,7.708823506
8/24/2010,14:20,181,80.50583922,-138.4637638,-1.4,27.209,7.70273773
8/24/2010,16:14,182A,80.62250588,-137.91333,-1.3,27.306,7.707272884
8/24/2010,16:14,182B,80.62250588,-137.91333,-1.3,27.306,7.706918418
8/24/2010,18:00,183,80.780347,-137.3987154,-1.4,27.534,7.718011898
8/24/2010,20:00,184,80.94834842,-136.7280614,-1.4,27.375,7.733317231
8/24/2010,22:00,185,81.09718062,-136.0491658,-1.4,26.8,7.740273027
8/25/2010,0:01,186,81.2828496,-135.2177845,-1.3,27.4,7.738099822
8/25/2010,2:00,187,81.42817828,-134.8213547,-1.3,27.9,7.733828108
8/25/2010,4:00,188,81.46950297,-134.8886053,-1.4,28.2,7.738263603
8/25/2010,6:00,189,81.50884223,-134.939673,-1.4,28.1,7.741559595
8/25/2010,10:00,191,81.58151488,-134.6115449,-1.4,28.465,7.74439301
8/25/2010,12:00,192,81.55967633,-134.5387221,-1.3,28.409,7.740553993
8/25/2010,14:00,193,81.57434108,-134.5364198,-1.1,28.561,7.741296956
8/25/2010,20:07,194,81.6539112,-134.6568958,-1.1,28.374,7.754361889
8/25/2010,22:00,195,81.8192905,-135.3417365,-1.4,26.998,7.759217308
8/26/2010,0:00,196,82.0085085,-136.1329663,-1.4,27.772,7.752926345
8/26/2010,2:00,197,82.16384717,-137.0662996,-1.5,27.952,7.755230342
8/26/2010,4:00,198,82.34384383,-138.0933767,-1.5,28.239,7.755163323
8/26/2010,13:00,199,82.4776392,-138.448802,-1.5,28.583,7.754937335
8/26/2010,19:11,200,82.29984993,-136.056323,-1.5,28.347,7.76094412
8/26/2010,21:00,201,82.27033703,-135.5092926,-1.5,27.754,7.768667468
8/26/2010,23:00,202,82.22167182,-134.8357024,-1.5,28.547,7.76654767
8/27/2010,1:00,203,82.15734077,-134.0304471,-1.4,28.324,7.76626695
8/27/2010,4:00,204,82.0495163,-132.6194695,-1.5,28.403,7.766090795
8/27/2010,6:00,205,81.99300977,-131.8545045,-1.4,28.494,7.768666233
8/27/2010,8:00,206,81.92617623,-130.955639,-1.4,28.634,7.756328632
8/27/2010,10:00,207,81.86584922,-130.0884384,-1.5,27.479,7.755919521
8/27/2010,12:00,208,81.79634633,-129.2519186,-1.4,28.25,7.75006869
8/27/2010,14:00,209,81.7416083,-128.3968998,-1.5,28.74,7.751600368
8/27/2010,21:10,210,81.7331832,-127.4816817,-1.5,28.357,7.768949914
8/27/2010,23:02,211,81.72267272,-127.2170337,-1.5,28.901,7.766697141
8/28/2010,4:20,212,81.71051053,-126.538989,-1.5,29.114,7.771251082
8/28/2010,6:00,213,81.6813481,-125.7043377,-1.5,29.116,7.770940686
8/28/2010,8:00,214,81.5935102,-124.9170838,-1.5,29.086,7.767019227
8/28/2010,10:00,215,81.53383393,-124.1422089,-1.5,29.206,7.768363351
8/28/2010,12:00,216,81.42200538,-123.6166667,-1.5,29.415,7.774775959
8/28/2010,14:00,217,81.36084417,-122.6204037,-1.5,29.289,7.770477462
8/28/2010,16:00,218,81.3138472,-121.9296797,-1.5,29.603,7.765231722
8/28/2010,18:00,219,81.20900912,-121.2575242,-1.5,29.737,7.76692623
8/28/2010,20:00,220,81.12517522,-120.3630464,-1.5,29.874,7.769803674
8/28/2010,22:00,221,81.0360028,-119.5109943,-1.5,29.905,7.757695926
8/29/2010,0:05,222,80.98218217,-119.0816149,-1.5,29.987,7.754237225
8/29/2010,2:00,223,80.95233578,-119.4565065,-1.6,29.889,7.755269238
8/29/2010,2:00,223,80.95233578,-119.4565065,-1.6,29.889,7.754731978
8/29/2010,4:00,224,80.8671672,-119.8543377,-1.5,29.708,7.758572518
8/29/2010,6:00,225,80.80600613,-120.5303303,-1.5,29.128,7.763623962
8/29/2010,8:00,226,80.7451785,-121.2487154,-1.5,29.559,7.759858805
8/29/2010,11:00,227,80.74951623,-121.9229897,-1.5,29.592,7.762015718
8/29/2010,13:00,228,80.67050388,-122.7029363,-1.5,28.578,-999
8/29/2010,15:00,229,80.59701367,-123.0399399,-1.4,28.612,7.762711956
8/29/2010,17:00,230,80.47951285,-123.7525526,-1.5,29.593,7.761923209
8/29/2010,19:00,231,80.38101445,-124.3907074,-1.5,28.583,7.7701998
8/29/2010,21:00,232,80.24784787,-125.2077744,-1.5,29.037,7.763820894
8/29/2010,23:00,233,80.05283628,-125.6697197,-1.5,29.184,7.763289306
8/30/2010,1:00,234,79.8663497,-126.7096763,-1.4,28.759,7.756756424
8/30/2010,3:00,235,79.86916923,-128.3029696,-1.4,28.325,7.754989489
8/30/2010,5:00,236,79.80817497,-129.7363864,-1.4,27.268,7.757632768
8/30/2010,7:00,237,79.59484495,-131.0384718,-1.4,26.697,7.728915567
8/30/2010,9:00,238,79.40216898,-132.3956623,-1.3,26.42,7.720431739
8/30/2010,12:15,239,79.08001333,-134.2175843,-1.3,27.132,7.715064459
8/30/2010,14:00,240,78.9350017,-135.2603604,-1.3,27.269,7.709922847
8/30/2010,15:18,241,78.79517855,-135.8018852,-1.2,27.044,7.693240198
8/30/2010,16:23,242,78.66051057,-136.0516683,-1.2,27.082,7.685375849
8/30/2010,18:00,243,78.40400408,-135.9543043,-0.9,26.9,7.680501588
8/30/2010,20:00,244,78.1635135,-136.414698,-1,26.388,7.672970072
8/30/2010,22:00,245A,77.73500175,-136.5501835,-0.8,26.167,7.672044643
8/30/2010,22:00,245B,77.73500175,-136.5501835,-0.8,26.167,7.672787757
8/31/2010,0:00,246,77.37167177,-136.8561562,-0.7,26.511,7.670082769
8/31/2010,2:00,247,77.22867873,-137.0854855,-1,26.002,7.671251506
8/31/2010,4:00,248,77.0190024,-137.7426593,-0.7,25.926,7.680707735
8/31/2010,6:00,249,76.73783793,-138.2600767,-0.6,25.932,7.675914269
8/31/2010,8:00,250,76.52250593,-138.8449116,-0.4,25.445,7.666752726
8/31/2010,10:00,251,76.27083765,-139.3633467,-0.2,25.192,7.663159922
8/31/2010,12:00,252,75.96179547,-139.7266767,-0.2,25.127,7.66746084
8/31/2010,14:00,253,75.61634975,-140.0651318,-0.5,24.613,7.658595036
8/31/2010,16:00,254,75.58383393,-140.0995829,-0.4,24.736,7.65857886
8/31/2010,21:50,255,75.39150825,-139.5928929,-0.1,24.694,7.662945095
9/1/2010,0:00,256,75.14451128,-138.9676176,-0.3,24.727,7.656389818
9/1/2010,2:00,257,74.94901572,-138.4870871,-0.2,24.874,7.657945153
9/1/2010,4:00,258,74.7705039,-137.9670337,-0.3,24.495,7.656046865
9/1/2010,6:00,259,74.70050065,-137.1915582,-0.5,24.533,7.656843475
9/1/2010,8:00,260,74.61700047,-136.2572573,-1.2,26.344,7.695311389
9/1/2010,10:00,261,74.5595095,-135.425025,-0.6,25.159,7.660202846
9/1/2010,12:00,262,74.52067077,-134.7446446,-0.9,25.875,7.668606173
9/1/2010,14:00,263,74.49067415,-133.9762262,-1,26.191,7.695080248
9/1/2010,16:00,264,74.44050728,-133.0264765,-1,26.178,7.684878512
9/1/2010,18:00,265,74.39434443,-132.2685686,-1.3,26.52,7.707287309
9/1/2010,20:00,266,74.43783783,-131.9030531,-1.3,27.359,7.724106903
9/1/2010,22:00,267,74.635669,-131.5297464,-1.2,27.02,7.725251099
9/2/2010,0:00,268,74.85333667,-131.4607608,-1.2,26.665,7.697533475
9/2/2010,1:30,269,75.0263431,-131.4165165,-1.4,27.001,7.71491358
9/2/2010,4:00,270,75.31084425,-131.4956957,-1.4,26.956,7.706057162
9/2/2010,6:00,271A,75.52767775,-131.3848182,-1.3,27.252,7.712483352
9/2/2010,6:00,271B,75.52767775,-131.3848182,-1.3,27.252,7.712610996
9/2/2010,8:00,272,75.70867548,-131.2615282,-1.3,24.799,7.738371201
9/2/2010,10:00,273,75.91983665,-131.1574575,-1.4,25.675,7.729866062
9/2/2010,12:00,274,76.1725059,-130.7914748,-1.4,27.268,7.716379014
9/2/2010,13:55,275,76.34050718,-129.9698866,-1.4,26.68,7.721022398
9/2/2010,15:45,276,76.34050718,-129.9698866,-1.4,27.32,7.711515583
9/2/2010,18:00,277,76.46034367,-129.0746747,,27.9,-999
9/3/2010,2:00,278,76.55500508,-128.8489156,-1.4,27.765,7.722587444
9/3/2010,4:00,279,76.58767108,-129.3767434,-1.4,27.613,7.716908997
9/3/2010,6:00,280,76.61267943,-129.9199867,-1.4,27.563,7.716342284
9/3/2010,8:00,281,76.64417758,-130.4557891,-1.4,27.375,7.712601366
9/3/2010,10:00,282,76.67317318,-131.0199199,-1.3,27.367,7.701114581
9/3/2010,12:00,283,76.69834848,-131.5533033,-1.4,27.18,7.702882312
9/3/2010,14:00,284,76.72350688,-132.1302302,-1.3,27.272,7.702059742
9/3/2010,16:00,285,76.74751425,-132.7045212,-1.3,26.799,7.687715926
9/3/2010,18:00,286,76.7698365,-133.2834001,-1.3,26.683,7.684567083
9/3/2010,20:00,287,76.7948449,-133.8400734,-1.1,25.788,7.672677755
9/3/2010,22:00,288,76.8105106,-134.4058892,-1.2,26.385,7.674871667
9/4/2010,0:00,289,76.82600933,-134.9255923,-1.1,26.5,7.675281738
9/4/2010,2:00,290,76.1844167,-136.124488,-0.7,25.558,7.666616618
9/4/2010,4:00,291,76.86134482,-136.0365032,-0.6,25.31,7.663554404
9/4/2010,6:00,292,76.72650987,-136.047681,-0.6,25.251,7.664072152
9/4/2010,8:00,293,76.59434435,-136.0637804,-0.8,25.235,7.664597214
9/4/2010,10:00,294,76.46034367,-136.0843844,-0.8,25.312,7.664309174
9/4/2010,12:00,295,76.3230064,-136.0981315,-0.8,25.215,7.661630017
9/4/2010,14:00,296,76.18151488,-136.1249583,-0.8,25.09,7.661003107
9/4/2010,16:00,297,76.0523357,-136.1424424,-1,25.422,7.666992212
9/4/2010,18:00,298,75.91866867,-136.1510344,-0.8,25.299,7.661381865
9/4/2010,20:00,299,75.79100775,-136.6044044,-0.8,25.363,7.659219861
9/4/2010,21:52,300,75.69267603,-137.4238405,-0.6,24.929,7.659036903
9/5/2010,0:03,301,75.55200212,-138.5235235,-0.5,24.751,7.658519445
9/5/2010,2:00,302,75.35183525,-139.8294461,-0.3,24.53,7.65392999
9/5/2010,3:56,303,75.08333333,-141.4156156,-0.3,24.49,7.65376567
9/5/2010,6:00,304A,74.83550217,-142.7465465,-0.1,24.302,7.650009744
9/5/2010,6:00,304B,74.83550217,-142.7465465,-0.1,24.302,7.647655643
9/5/2010,8:00,305,74.56084432,-144.2119286,-0.2,24.208,7.647365952
9/5/2010,10:00,306,74.23933945,-145.7057558,-0.4,24.148,7.64399158
9/5/2010,12:00,307,73.94584593,-147.0548549,-0.6,24.307,7.648675886
9/5/2010,13:53,308,73.71900238,-147.9670838,-0.2,24.665,7.658410955
9/5/2010,16:00,309,73.48683692,-148.9016683,0.3,25.032,7.662369423
9/5/2010,17:55,310,73.25016688,-149.9843844,1.3,25.261,7.667264287
